Location: North Fontana
(34.1395°N, 117.4623°W)
Time: 06:28:37
(UTC+00:00)

YAOGAN 11 - Visible Passes

Search period start: 13 July 2024 00:00
Search period end: 23 July 2024 00:00
Orbit: 606 x 657 km, 98.4° (Epoch: 12 July)

Date Brightness Start Highest point End Pass type
(mag) Time Alt. Az. Time Alt. Az. Time Alt. Az.
15 Jul 7.7 11:42:33 10° E 11:43:48 11° ENE 11:45:03 10° NE visible
16 Jul 7.1 12:01:26 10° ESE 12:04:28 19° ENE 12:07:31 10° NNE visible
17 Jul 6.3 12:21:23 10° SE 12:25:11 32° ENE 12:29:04 10° N visible
20 Jul 7.4 11:49:45 10° E 11:51:54 14° ENE 11:54:04 10° NE visible
21 Jul 7.0 12:09:11 10° ESE 12:12:34 23° ENE 12:16:00 10° NNE visible
